{"data":{"norad_id":61741,"intl_designator":"2024-199G","name":"SITRO-AIS 24","alt_names":[],"object_type":"PAYLOAD","status":"ACTIVE","operator":null,"country":"CIS","launch_date":"2024-11-04","launch_site_code":"VOSTO","launch_vehicle":null,"mission":null,"orbit_class":"UNKNOWN","rcs_meters":null,"size_class":null,"mass_kg":null,"dimensions":null,"purposes":[],"wikipedia_slug":null,"has_3d_model":false,"image_url":null,"decayed_at":null,"tle_current":{"epoch":"2026-05-25T03:32:44.867328Z","epoch_age_seconds":69193,"freshness":"FRESH","line1":"1 61741U 24199G   26145.14774152  .00002211  00000+0  20136-3 0  9993","line2":"2 61741  97.3264 344.6936 0013466 136.9094 223.3185 14.96023276128442","mean_motion":14.96023276,"eccentricity":0.0013466,"inclination_deg":97.3264,"raan_deg":344.6936,"arg_perigee_deg":136.9094,"mean_anomaly_deg":223.3185,"bstar":0.00020136,"rev_number":12844,"period_min":96.255186874512,"perigee_km":569.82966098872,"apogee_km":588.56715671183,"semimajor_km":6957.3354088503,"source":"CELESTRAK","updated_at":"2026-05-25T13:38:02.531181Z"}}}